Port Huron, MI

4:28 AM EDT on June 26, 2017 (GMT -0400)
Saint Clair County International

Weather History for KPHN - April, 2013

Change the Weather History Date:

Tuesday, April 23, 2013

  Actual Average (KMTC) Record (KMTC)
Temperature  
Mean Temperature 54 °F -  
Max Temperature 66 °F 58 °F 87 °F (1960)
Min Temperature 42 °F 39 °F 24 °F (1986)
Degree Days  
Heating Degree Days 11    
Growing Degree Days 4 (Base 50)    
Moisture  
Dew Point 40 °F    
Average Humidity 63    
Maximum Humidity 100    
Minimum Humidity 43    
Precipitation  
Precipitation 0.00 in - - ()
Sea Level Pressure  
Sea Level Pressure 30.03 in    
Wind  
Wind Speed 8 mph (SSE)    
Max Wind Speed 16 mph    
Max Gust Speed 22 mph    
Visibility 10 miles    
Events Rain    
Averages and records for this station are not official NWS values.
T = Trace of Precipitation, MM = Missing Value Source: NWS Daily Summary

Daily Weather History Graph

Daily Weather History Graph

Search for Another Location

Airport or City:

Trip Planner

Search our weather history database for the weather conditions in past years. The results will help you decide how hot, cold, wet, or windy it might be!

Date:

Astronomy

Apr. 23, 2013 Rise Set
Actual Time 6:35 AM EDT 8:22 PM EDT
Civil Twilight 6:05 AM EDT 8:52 PM EDT
Nautical Twilight 5:28 AM EDT 9:29 PM EDT
Astronomical Twilight 4:49 AM EDT 10:09 PM EDT
Moon 6:13 PM EDT (4/23) 5:06 AM EDT (4/23)
Length of Visible Light 14h 47m
Length of Day
13h 46m
Waxing Gibbous, 94% of the Moon is Illuminated
Apr 23
Waxing Gibbous
Apr 25
Full
May 2
Last Quarter
May 9
New
May 18
First Quarter

Hourly Weather History & Observations

Time (EDT) Temp. Windchill Dew Point Humidity Pressure Visibility Wind Dir Wind Speed Gust Speed Precip Events Conditions
12:17 AM 46.4 °F 45.2 °F 33.8 °F 62% 30.22 in 10.0 mi SE 3.5 mph - N/A   Clear
12:37 AM 46.4 °F 43.5 °F 33.8 °F 62% 30.22 in 10.0 mi ESE 5.8 mph - N/A   Clear
12:57 AM 46.4 °F 42.9 °F 33.8 °F 62% 30.21 in 10.0 mi SE 6.9 mph - N/A   Clear
1:17 AM 46.4 °F 42.9 °F 33.8 °F 62% 30.20 in 10.0 mi ESE 6.9 mph - N/A   Clear
1:37 AM 46.4 °F 42.9 °F 33.8 °F 62% 30.20 in 10.0 mi ESE 6.9 mph - N/A   Clear
1:57 AM 44.6 °F 41.4 °F 33.8 °F 66% 30.19 in 10.0 mi ESE 5.8 mph - N/A   Clear
2:17 AM 44.6 °F 40.7 °F 33.8 °F 66% 30.19 in 10.0 mi SE 6.9 mph - N/A   Clear
2:37 AM 44.6 °F 41.4 °F 33.8 °F 66% 30.18 in 10.0 mi SE 5.8 mph - N/A   Clear
2:57 AM 44.6 °F 40.7 °F 33.8 °F 66% 30.17 in 10.0 mi SE 6.9 mph - N/A   Clear
3:17 AM 44.6 °F 40.7 °F 33.8 °F 66% 30.16 in 10.0 mi SE 6.9 mph - N/A   Clear
3:37 AM 44.6 °F 41.4 °F 33.8 °F 66% 30.16 in 10.0 mi SE 5.8 mph - N/A   Clear
3:57 AM 42.8 °F 39.3 °F 33.8 °F 70% 30.16 in 10.0 mi SE 5.8 mph - N/A   Clear
4:17 AM 42.8 °F 40.1 °F 33.8 °F 70% 30.16 in 10.0 mi SSE 4.6 mph - N/A   Clear
4:37 AM 42.8 °F 39.3 °F 33.8 °F 70% 30.16 in 10.0 mi SSE 5.8 mph - N/A   Clear
4:57 AM 42.8 °F 39.3 °F 32.0 °F 66% 30.15 in 10.0 mi SE 5.8 mph - N/A   Clear
5:17 AM 44.6 °F 40.2 °F 32.0 °F 61% 30.14 in 10.0 mi SE 8.1 mph - N/A   Clear
5:37 AM 44.6 °F 40.2 °F 32.0 °F 61% 30.14 in 10.0 mi SSE 8.1 mph - N/A   Clear
5:57 AM 44.6 °F 39.7 °F 32.0 °F 61% 30.14 in 10.0 mi SE 9.2 mph - N/A   Clear
6:17 AM 42.8 °F 38.6 °F 32.0 °F 66% 30.13 in 10.0 mi SSE 6.9 mph - N/A   Clear
6:37 AM 42.8 °F 38.0 °F 32.0 °F 66% 30.13 in 10.0 mi SE 8.1 mph - N/A   Clear
6:57 AM 42.8 °F 37.5 °F 33.8 °F 70% 30.12 in 10.0 mi SSE 9.2 mph - N/A   Clear
7:17 AM 44.6 °F 40.2 °F 33.8 °F 66% 30.12 in 10.0 mi SSE 8.1 mph - N/A   Clear
7:37 AM 44.6 °F 39.2 °F 33.8 °F 66% 30.12 in 10.0 mi SSE 10.4 mph - N/A   Clear
7:57 AM 46.4 °F 41.1 °F 35.6 °F 66% 30.13 in 10.0 mi SSE 11.5 mph - N/A   Clear
8:17 AM 46.4 °F 41.5 °F 35.6 °F 66% 30.14 in 10.0 mi SSE 10.4 mph 18.4 mph N/A   Clear
8:37 AM 46.4 °F 41.5 °F 35.6 °F 66% 30.13 in 10.0 mi South 10.4 mph - N/A   Clear
8:57 AM 48.2 °F - 35.6 °F 62% 30.12 in 10.0 mi SSE 13.8 mph 19.6 mph N/A   Clear
9:17 AM 50.0 °F - 37.4 °F 62% 30.11 in 10.0 mi SSE 11.5 mph - N/A   Clear
9:37 AM 51.8 °F - 37.4 °F 58% 30.11 in 10.0 mi SSE 10.4 mph 16.1 mph N/A   Clear
9:57 AM 51.8 °F - 37.4 °F 58% 30.12 in 10.0 mi South 12.7 mph 21.9 mph N/A   Clear
10:17 AM 53.6 °F - 37.4 °F 54% 30.11 in 10.0 mi SSE 11.5 mph 18.4 mph N/A   Clear
10:37 AM 53.6 °F - 37.4 °F 54% 30.10 in 10.0 mi SE 9.2 mph 17.3 mph N/A   Clear
10:57 AM 57.2 °F - 39.2 °F 51% 30.09 in 10.0 mi SE 12.7 mph - N/A   Clear
11:17 AM 57.2 °F - 39.2 °F 51% 30.07 in 10.0 mi SE 16.1 mph 19.6 mph N/A   Clear
11:37 AM 57.2 °F - 39.2 °F 51% 30.06 in 10.0 mi SE 13.8 mph - N/A   Clear
11:57 AM 59.0 °F - 39.2 °F 48% 30.06 in 10.0 mi SSE 13.8 mph 20.7 mph N/A   Clear
12:17 PM 60.8 °F - 41.0 °F 48% 30.06 in 10.0 mi South 13.8 mph 20.7 mph N/A   Clear
12:37 PM 60.8 °F - 41.0 °F 48% 30.05 in 10.0 mi SSW 13.8 mph 17.3 mph N/A   Clear
12:57 PM 62.6 °F - 41.0 °F 45% 30.03 in 10.0 mi South 12.7 mph 17.3 mph N/A   Clear
1:17 PM 62.6 °F - 41.0 °F 45% 30.02 in 10.0 mi SSE 11.5 mph 17.3 mph N/A   Clear
1:37 PM 62.6 °F - 41.0 °F 45% 30.02 in 10.0 mi South 11.5 mph 18.4 mph N/A   Clear
1:57 PM 64.4 °F - 42.8 °F 45% 30.00 in 10.0 mi South 12.7 mph 18.4 mph N/A   Clear
2:17 PM 64.4 °F - 42.8 °F 45% 29.99 in 10.0 mi SSE 8.1 mph - N/A   Clear
2:37 PM 64.4 °F - 42.8 °F 45% 29.98 in 10.0 mi SE 11.5 mph 17.3 mph N/A   Scattered Clouds
2:57 PM 64.4 °F - 42.8 °F 45% 29.97 in 10.0 mi South 12.7 mph 20.7 mph N/A   Scattered Clouds
3:17 PM 64.4 °F - 42.8 °F 45% 29.97 in 10.0 mi South 10.4 mph 18.4 mph N/A   Mostly Cloudy
3:37 PM 66.2 °F - 42.8 °F 43% 29.95 in 10.0 mi SSE 13.8 mph 20.7 mph N/A   Scattered Clouds
3:57 PM 66.2 °F - 42.8 °F 43% 29.94 in 10.0 mi SSE 10.4 mph 19.6 mph N/A   Scattered Clouds
4:17 PM 66.2 °F - 42.8 °F 43% 29.93 in 10.0 mi SSE 12.7 mph 18.4 mph N/A   Scattered Clouds
4:37 PM 66.2 °F - 42.8 °F 43% 29.92 in 10.0 mi SSE 12.7 mph 16.1 mph N/A   Mostly Cloudy
4:57 PM 66.2 °F - 42.8 °F 43% 29.91 in 10.0 mi SSE 9.2 mph 19.6 mph N/A   Scattered Clouds
5:17 PM 64.4 °F - 44.6 °F 49% 29.90 in 10.0 mi SE 12.7 mph 19.6 mph N/A   Clear
5:37 PM 64.4 °F - 44.6 °F 49% 29.89 in 10.0 mi SE 12.7 mph - N/A   Clear
5:57 PM 64.4 °F - 44.6 °F 49% 29.89 in 10.0 mi SSE 12.7 mph 20.7 mph N/A   Clear
6:17 PM 64.4 °F - 44.6 °F 49% 29.88 in 10.0 mi SSE 12.7 mph 21.9 mph N/A   Scattered Clouds
6:37 PM 62.6 °F - 42.8 °F 48% 29.87 in 10.0 mi SSE 12.7 mph 21.9 mph N/A   Scattered Clouds
6:57 PM 62.6 °F - 42.8 °F 48% 29.87 in 10.0 mi SE 10.4 mph - N/A   Mostly Cloudy
7:17 PM 60.8 °F - 42.8 °F 52% 29.86 in 10.0 mi SSE 12.7 mph 19.6 mph N/A   Mostly Cloudy
7:37 PM 59.0 °F - 44.6 °F 59% 29.87 in 10.0 mi SSE 12.7 mph 16.1 mph N/A   Light Drizzle
7:57 PM 59.0 °F - 44.6 °F 59% 29.89 in 10.0 mi South 10.4 mph 17.3 mph N/A Rain Rain
8:17 PM 55.4 °F - 46.4 °F 72% 29.90 in 10.0 mi South 9.2 mph - N/A Rain Light Rain
8:37 PM 53.6 °F - 50.0 °F 88% 29.90 in 10.0 mi South 6.9 mph - N/A Rain Light Rain
8:57 PM 53.6 °F - 50.0 °F 88% 29.90 in 7.0 mi SSE 6.9 mph - N/A Rain Light Rain
9:17 PM 51.8 °F - 51.8 °F 100% 29.89 in 7.0 mi South 4.6 mph - N/A Rain Light Rain
9:37 PM 53.6 °F - 51.8 °F 94% 29.89 in 7.0 mi SSE 6.9 mph - N/A Rain Light Rain
9:57 PM 53.6 °F - 53.6 °F 100% 29.88 in 7.0 mi South 6.9 mph - N/A   Drizzle
10:17 PM 53.6 °F - 53.6 °F 100% 29.87 in 7.0 mi South 6.9 mph - N/A Rain Light Rain
10:37 PM 53.6 °F - 53.6 °F 100% 29.87 in 7.0 mi South 8.1 mph - N/A   Drizzle
10:57 PM 53.6 °F - 53.6 °F 100% 29.86 in 7.0 mi South 6.9 mph - N/A   Overcast
11:17 PM 53.6 °F - 53.6 °F 100% 29.85 in 5.0 mi South 5.8 mph - N/A Rain Light Rain
11:37 PM 53.6 °F - 53.6 °F 100% 29.84 in 5.0 mi South 3.5 mph - N/A Rain Light Rain
11:57 PM 53.6 °F - 53.6 °F 100% 29.84 in 4.0 mi South 3.5 mph - N/A Rain Rain